Change the Weather History Date:

Thursday, April 4, 2013

  Actual Average Record
Temperature  
Mean Temperature 40 °F 39 °F  
Max Temperature 64 °F 56 °F 71 °F (1943)
Min Temperature 15 °F 21 °F -3 °F (1945)
Degree Days  
Heating Degree Days 25 26  
Month to date heating degree days 93 107  
Since 1 July heating degree days 7839 7413  
Cooling Degree Days 0 0  
Month to date cooling degree days 0 0  
Year to date cooling degree days 0 0  
Moisture  
Dew Point 12 °F    
Average Humidity 44    
Maximum Humidity 74    
Minimum Humidity 13    
Precipitation  
Precipitation 0.00 in 0.02 in 0.54 in (1996)
Month to date precipitation 0.01 0.08  
Year to date precipitation 0.57 1.13  
Snow  
Snow 0.00 in 0.10 in 4.70 in (1996)
Month to date snowfall T 0.6  
Since 1 July snowfall 18.9 23.7  
Snow Depth 0.00 in    
Sea Level Pressure  
Sea Level Pressure 30.13 in    
Wind  
Wind Speed 5 mph (SSW)    
Max Wind Speed 22 mph    
Max Gust Speed 28 mph    
Visibility 10 miles    
Events      
T = Trace of Precipitation, MM = Missing Value Source: NWS Daily Summary

Daily Weather History Graph

Daily Weather History Graph

Search for Another Location

Airport or City:

Trip Planner

Search our weather history database for the weather conditions in past years. The results will help you decide how hot, cold, wet, or windy it might be!

Date:

Astronomy

Apr. 04, 2013 Rise Set
Actual Time 6:44 AM MDT 7:29 PM MDT
Civil Twilight 6:17 AM MDT 7:55 PM MDT
Nautical Twilight 5:46 AM MDT 8:26 PM MDT
Astronomical Twilight 5:14 AM MDT 8:59 PM MDT
Moon 3:05 AM MDT (4/4) 1:56 PM MDT (4/4)
Length of Visible Light 13h 38m
Length of Day
12h 45m
Waning Crescent, 33% of the Moon is Illuminated
Apr 4
Waning Crescent
Apr 10
New
Apr 18
First Quarter
Apr 25
Full
May 2
Last Quarter

Hourly Weather History & Observations

Time (MDT) Temp. Windchill Dew Point Humidity Pressure Visibility Wind Dir Wind Speed Gust Speed Precip Events Conditions
12:52 AM 26.1 °F 20.5 °F 12.9 °F 58% 30.18 in 10.0 mi NE 4.6 mph - N/A   Clear
1:52 AM 27.0 °F - 15.1 °F 61% 30.15 in 10.0 mi Calm Calm - N/A   Clear
2:52 AM 24.1 °F 19.7 °F 16.0 °F 71% 30.17 in 10.0 mi Variable 3.5 mph - N/A   Clear
3:52 AM 19.9 °F - 12.9 °F 74% 30.18 in 10.0 mi Calm Calm - N/A   Clear
4:52 AM 18.0 °F - 10.9 °F 74% 30.20 in 10.0 mi Calm Calm - N/A   Clear
5:52 AM 19.9 °F - 10.0 °F 65% 30.22 in 10.0 mi Calm Calm - N/A   Clear
6:52 AM 15.1 °F 9.4 °F 8.1 °F 74% 30.27 in 10.0 mi ESE 3.5 mph - N/A   Clear
7:52 AM 25.0 °F - 15.1 °F 66% 30.24 in 10.0 mi Calm Calm - N/A   Clear
8:52 AM 36.0 °F - 19.0 °F 50% 30.23 in 10.0 mi Calm Calm - N/A   Clear
9:52 AM 45.0 °F - 19.0 °F 36% 30.22 in 10.0 mi Calm Calm - N/A   Clear
10:52 AM 50.0 °F - 18.0 °F 28% 30.19 in 10.0 mi Variable 6.9 mph - N/A   Clear
11:52 AM 54.0 °F - 16.0 °F 22% 30.17 in 10.0 mi North 5.8 mph - N/A   Clear
12:52 PM 57.0 °F - 12.0 °F 17% 30.15 in 10.0 mi NNW 8.1 mph - N/A   Clear
1:52 PM 57.9 °F - 9.0 °F 14% 30.11 in 10.0 mi Calm Calm - N/A   Clear
2:52 PM 61.0 °F - 10.9 °F 14% 30.08 in 10.0 mi Variable 5.8 mph 17.3 mph N/A   Clear
3:52 PM 63.0 °F - 10.0 °F 13% 30.07 in 10.0 mi South 9.2 mph 20.7 mph N/A   Clear
4:52 PM 63.0 °F - 10.9 °F 13% 30.06 in 10.0 mi SSE 4.6 mph 16.1 mph N/A   Clear
5:52 PM 62.1 °F - 10.0 °F 13% 30.05 in 10.0 mi South 8.1 mph 18.4 mph N/A   Clear
6:52 PM 60.1 °F - 10.0 °F 14% 30.08 in 10.0 mi SSW 16.1 mph - N/A   Clear
7:52 PM 52.0 °F - 9.0 °F 18% 30.07 in 10.0 mi SSW 11.5 mph - N/A   Clear
8:52 PM 50.0 °F - 10.0 °F 20% 30.05 in 10.0 mi SSW 10.4 mph - N/A   Clear
9:52 PM 46.9 °F - 10.9 °F 23% 30.04 in 10.0 mi SSW 13.8 mph - N/A   Clear
10:52 PM 45.0 °F 40.1 °F 12.0 °F 26% 30.03 in 10.0 mi SW 9.2 mph - N/A   Clear
11:52 PM 39.0 °F 34.8 °F 10.0 °F 30% 30.04 in 10.0 mi SSW 5.8 mph - N/A   Clear